| time (UTC) | temp C | wind direction | speed KPH | gust KPH | rain 1hr cm | rain 24hr cm | rain mn cm | humidity % | barometer mb |
| 20260905182440 | 25 | 320 | 0.0 | 0.0 | 0.00 | 0.03 | 0.00 | 82 | 1011.2 |
| 20260905181410 | 25 | 320 | 0.0 | 0.0 | 0.00 | 0.03 | 0.00 | 84 | 1011.4 |
| 20260905180410 | 25 | 318 | 0.0 | 0.0 | 0.00 | 0.03 | 0.00 | 82 | 1012.1 |
| 20260905175410 | 25 | 318 | 0.0 | 0.0 | 0.00 | 0.03 | 0.00 | 82 | 1012.2 |
| 20260905174410 | 26 | 318 | 0.0 | 0.0 | 0.00 | 0.03 | 0.00 | 80 | 1012.4 |
| 20260905173410 | 25 | 318 | 0.0 | 0.0 | 0.00 | 0.03 | 0.00 | 81 | 1012.4 |
| 20260905172410 | 26 | 318 | 0.0 | 0.0 | 0.00 | 0.03 | 0.00 | 81 | 1012.3 |
| 20260905171410 | 26 | 318 | 0.0 | 0.0 | 0.00 | 0.03 | 0.00 | 79 | 1012.4 |
| 20260905170440 | 26 | 306 | 0.0 | 1.6 | 0.00 | 0.03 | 0.00 | 77 | 1012.3 |
| 20260905165410 | 26 | 350 | 0.0 | 1.6 | 0.00 | 0.03 | 0.00 | 77 | 1012.4 |
| 20260905164510 | 26 | 292 | 1.6 | 4.8 | 0.00 | 0.03 | 0.00 | 77 | 1012.3 |
| 20260905162410 | 26 | 265 | 0.0 | 4.8 | 0.00 | 0.03 | 0.00 | 79 | 1012.0 |
| 20260905160410 | 26 | 279 | 0.0 | 4.8 | 0.00 | 0.03 | 0.00 | 80 | 1012.3 |
| 20260905155410 | 26 | 296 | 1.6 | 3.2 | 0.00 | 0.03 | 0.00 | 81 | 1012.2 |
| 20260905154410 | 26 | 67 | 0.0 | 0.0 | 0.00 | 0.03 | 0.00 | 82 | 1012.2 |
| 20260905153410 | 26 | 301 | 0.0 | 3.2 | 0.00 | 0.03 | 0.00 | 83 | 1012.2 |
| 20260905152410 | 26 | 64 | 1.6 | 4.8 | 0.00 | 0.03 | 0.00 | 82 | 1012.3 |
| 20260905151410 | 26 | 286 | 3.2 | 3.2 | 0.00 | 0.03 | 0.00 | 83 | 1012.3 |
| 20260905150410 | 26 | 286 | 1.6 | 8.0 | 0.00 | 0.03 | 0.00 | 82 | 1012.3 |
| 20260905144410 | 26 | 276 | 4.8 | 4.8 | 0.00 | 0.03 | 0.00 | 82 | 1012.3 |
| 20260905143410 | 26 | 113 | 0.0 | 3.2 | 0.00 | 0.03 | 0.00 | 81 | 1012.1 |
| 20260905142410 | 26 | 327 | 4.8 | 4.8 | 0.00 | 0.03 | 0.00 | 83 | 1011.8 |
| 20260905140440 | 26 | 146 | 0.0 | 8.0 | 0.00 | 0.03 | 0.00 | 82 | 1011.8 |
| 20260905135410 | 26 | 282 | 0.0 | 0.0 | 0.00 | 0.03 | 0.00 | 83 | 1011.9 |
| 20260905134410 | 26 | 267 | 3.2 | 3.2 | 0.00 | 0.03 | 0.00 | 82 | 1011.9 |
| 20260905133410 | 25 | 242 | 0.0 | 0.0 | 0.00 | 0.03 | 0.00 | 84 | 1012.0 |
| 20260905132410 | 25 | 242 | 0.0 | 0.0 | 0.00 | 0.03 | 0.00 | 84 | 1011.8 |
| 20260905131410 | 25 | 186 | 0.0 | 0.0 | 0.00 | 0.03 | 0.00 | 83 | 1011.7 |
| 20260905130410 | 25 | 259 | 0.0 | 4.8 | 0.00 | 0.03 | 0.00 | 83 | 1011.7 |
| 20260905124410 | 25 | 284 | 0.0 | 0.0 | 0.00 | 0.03 | 0.00 | 84 | 1011.7 |
| 20260905123410 | 25 | 316 | 1.6 | 1.6 | 0.00 | 0.03 | 0.00 | 85 | 1011.7 |
| 20260905122410 | 25 | 5 | 0.0 | 0.0 | 0.00 | 0.03 | 0.00 | 85 | 1011.7 |
| 20260905121410 | 24 | 28 | 1.6 | 1.6 | 0.00 | 0.03 | 0.00 | 85 | 1011.7 |
| 20260905120410 | 24 | 269 | 0.0 | 0.0 | 0.00 | 0.03 | 0.00 | 86 | 1011.6 |
| 20260905115410 | 24 | 269 | 0.0 | 1.6 | 0.00 | 0.03 | 0.00 | 86 | 1011.7 |
| 20260905114410 | 24 | 299 | 0.0 | 0.0 | 0.00 | 0.03 | 0.00 | 86 | 1011.5 |
| 20260905112410 | 23 | 323 | 0.0 | 0.0 | 0.00 | 0.03 | 0.00 | 88 | 1011.3 |
| 20260905110410 | 23 | 333 | 0.0 | 0.0 | 0.00 | 0.03 | 0.00 | 89 | 1011.1 |
| 20260905105410 | 22 | 338 | 0.0 | 0.0 | 0.00 | 0.03 | 0.00 | 90 | 1011.0 |
| 20260905104410 | 22 | 321 | 0.0 | 0.0 | 0.00 | 0.03 | 0.00 | 90 | 1011.1 |
| 20260905103410 | 22 | 307 | 0.0 | 6.4 | 0.00 | 0.03 | 0.00 | 90 | 1010.9 |
| 20260905102510 | 22 | 302 | 0.0 | 0.0 | 0.00 | 0.03 | 0.00 | 90 | 1010.8 |
| 20260905101410 | 22 | 302 | 0.0 | 0.0 | 0.00 | 0.03 | 0.00 | 90 | 1010.7 |
| 20260905100410 | 22 | 302 | 0.0 | 0.0 | 0.00 | 0.03 | 0.00 | 89 | 1010.7 |
| 20260905095410 | 22 | 302 | 0.0 | 0.0 | 0.00 | 0.03 | 0.00 | 88 | 1010.6 |
| 20260905094410 | 23 | 302 | 0.0 | 0.0 | 0.00 | 0.03 | 0.00 | 88 | 1010.5 |
| 20260905093410 | 23 | 302 | 0.0 | 1.6 | 0.00 | 0.03 | 0.00 | 88 | 1010.5 |
| 20260905092410 | 23 | 303 | 0.0 | 4.8 | 0.00 | 0.03 | 0.00 | 87 | 1010.5 |
| 20260905091410 | 23 | 209 | 0.0 | 0.0 | 0.00 | 0.03 | 0.00 | 88 | 1010.5 |
| 20260905090410 | 23 | 269 | 0.0 | 0.0 | 0.00 | 0.03 | 0.00 | 88 | 1010.5 |
| 20260905085410 | 23 | 269 | 0.0 | 0.0 | 0.00 | 0.03 | 0.00 | 88 | 1010.5 |
| 20260905084410 | 23 | 269 | 0.0 | 1.6 | 0.00 | 0.03 | 0.00 | 88 | 1010.5 |
| 20260905083410 | 23 | 273 | 0.0 | 4.8 | 0.00 | 0.03 | 0.00 | 88 | 1010.6 |
| 20260905082410 | 23 | 292 | 0.0 | 8.0 | 0.00 | 0.03 | 0.00 | 89 | 1010.8 |
| 20260905081410 | 23 | 254 | 0.0 | 0.0 | 0.00 | 0.03 | 0.00 | 89 | 1010.7 |
| 20260905080410 | 23 | 256 | 0.0 | 0.0 | 0.00 | 0.03 | 0.00 | 90 | 1010.8 |
| 20260905075410 | 23 | 303 | 0.0 | 1.6 | 0.00 | 0.03 | 0.00 | 90 | 1010.9 |
| 20260905074410 | 23 | 291 | 1.6 | 3.2 | 0.00 | 0.03 | 0.00 | 91 | 1010.8 |
| 20260905073410 | 23 | 279 | 0.0 | 1.6 | 0.00 | 0.03 | 0.00 | 91 | 1010.9 |
| 20260905072411 | 23 | 185 | 0.0 | 0.0 | 0.00 | 0.03 | 0.00 | 91 | 1011.0 |
| 20260905070411 | 23 | 185 | 0.0 | 0.0 | 0.00 | 0.03 | 0.00 | 91 | 1010.9 |
| 20260905065411 | 23 | 204 | 0.0 | 0.0 | 0.00 | 0.03 | 0.00 | 91 | 1011.1 |
| 20260905064441 | 23 | 207 | 0.0 | 0.0 | 0.00 | 0.03 | 0.00 | 91 | 1011.2 |
| 20260905063411 | 23 | 206 | 0.0 | 0.0 | 0.00 | 0.03 | 0.00 | 91 | 1011.3 |
| 20260905062411 | 23 | 196 | 0.0 | 3.2 | 0.00 | 0.03 | 0.00 | 90 | 1011.2 |
| 20260905061411 | 23 | 246 | 0.0 | 0.0 | 0.00 | 0.03 | 0.00 | 90 | 1011.2 |
| 20260905060411 | 23 | 246 | 0.0 | 0.0 | 0.00 | 0.08 | 0.00 | 89 | 1011.2 |
| 20260905054511 | 23 | 245 | 0.0 | 0.0 | 0.00 | 0.18 | 0.00 | 89 | 1011.5 |
| 20260905053410 | 23 | 207 | 0.0 | 1.6 | 0.00 | 0.64 | 0.00 | 89 | 1011.7 |
| 20260905052411 | 23 | 209 | 0.0 | 1.6 | 0.00 | 1.30 | 0.00 | 89 | 1011.8 |
| 20260905051411 | 23 | 223 | 0.0 | 1.6 | 0.00 | 2.11 | 0.00 | 88 | 1011.9 |
| 20260905050411 | 23 | 221 | 0.0 | 0.0 | 0.00 | 3.33 | 0.00 | 88 | 1012.0 |
| 20260905044441 | 24 | 229 | 0.0 | 1.6 | 0.00 | 3.71 | 0.00 | 88 | 1012.2 |
| 20260905043411 | 23 | 225 | 0.0 | 3.2 | 0.00 | 3.71 | 0.00 | 89 | 1012.1 |
| 20260905042411 | 24 | 278 | 0.0 | 0.0 | 0.00 | 3.71 | 0.00 | 89 | 1012.2 |
| 20260905041411 | 24 | 278 | 0.0 | 3.2 | 0.00 | 3.89 | 0.00 | 89 | 1012.3 |
| 20260905040511 | 24 | 198 | 0.0 | 0.0 | 0.00 | 4.06 | 4.06 | 89 | 1012.4 |
| 20260905034411 | 24 | 198 | 0.0 | 0.0 | 0.00 | 4.11 | 4.06 | 88 | 1012.4 |
| 20260905033411 | 24 | 198 | 0.0 | 0.0 | 0.00 | 4.11 | 4.06 | 87 | 1012.4 |
| 20260905032411 | 23 | 198 | 0.0 | 0.0 | 0.00 | 4.11 | 4.06 | 86 | 1012.3 |
| 20260905030411 | 24 | 198 | 0.0 | 0.0 | 0.00 | 4.11 | 4.06 | 87 | 1012.3 |
| 20260905024411 | 24 | 198 | 0.0 | 0.0 | 0.00 | 4.11 | 4.06 | 84 | 1012.6 |
| 20260905023411 | 24 | 198 | 0.0 | 0.0 | 0.00 | 4.11 | 4.06 | 85 | 1012.7 |
| 20260905022411 | 24 | 198 | 0.0 | 0.0 | 0.00 | 4.11 | 4.06 | 85 | 1012.8 |
| 20260905021411 | 24 | 198 | 0.0 | 0.0 | 0.00 | 4.11 | 4.06 | 85 | 1012.8 |
| 20260905020411 | 24 | 198 | 0.0 | 0.0 | 0.00 | 4.11 | 4.06 | 85 | 1012.5 |
| 20260905015411 | 24 | 198 | 0.0 | 0.0 | 0.00 | 4.11 | 4.06 | 86 | 1012.5 |
| 20260905014411 | 24 | 198 | 0.0 | 0.0 | 0.00 | 4.11 | 4.06 | 85 | 1012.3 |
| 20260905013411 | 24 | 198 | 0.0 | 0.0 | 0.00 | 4.11 | 4.06 | 85 | 1012.4 |
| 20260905012411 | 24 | 198 | 0.0 | 0.0 | 0.00 | 4.11 | 4.06 | 85 | 1012.5 |
| 20260905011411 | 25 | 198 | 0.0 | 0.0 | 0.00 | 4.11 | 4.06 | 84 | 1012.3 |
| 20260905010411 | 25 | 198 | 0.0 | 0.0 | 0.00 | 4.11 | 4.06 | 84 | 1012.1 |
| 20260905005411 | 25 | 198 | 0.0 | 0.0 | 0.00 | 4.11 | 4.06 | 83 | 1012.3 |
| 20260905004441 | 25 | 198 | 0.0 | 0.0 | 0.00 | 4.11 | 4.06 | 83 | 1012.2 |
| 20260905003411 | 25 | 199 | 0.0 | 1.6 | 0.00 | 4.11 | 4.06 | 82 | 1012.5 |
| 20260905002411 | 24 | 199 | 0.0 | 4.8 | 0.00 | 4.11 | 4.06 | 84 | 1012.3 |
| 20260905001411 | 24 | 279 | 0.0 | 0.0 | 0.00 | 4.11 | 4.06 | 85 | 1012.1 |
| 20260905000411 | 24 | 279 | 0.0 | 0.0 | 0.00 | 4.11 | 4.06 | 86 | 1011.8 |
| 20260904235411 | 24 | 279 | 0.0 | 0.0 | 0.00 | 4.11 | 4.06 | 86 | 1011.7 |
| 20260904234411 | 24 | 279 | 0.0 | 0.0 | 0.00 | 4.11 | 4.06 | 87 | 1011.7 |
| 20260904233411 | 25 | 279 | 0.0 | 0.0 | 0.00 | 4.11 | 4.06 | 86 | 1011.4 |
| 20260904232411 | 25 | 279 | 0.0 | 0.0 | 0.03 | 4.11 | 4.06 | 83 | 1011.4 |
| 20260904231411 | 25 | 279 | 0.0 | 0.0 | 0.03 | 4.11 | 4.06 | 80 | 1011.3 |
| 20260904230411 | 25 | 279 | 0.0 | 0.0 | 0.03 | 4.11 | 4.06 | 80 | 1011.5 |
| 20260904224411 | 26 | 274 | 0.0 | 0.0 | 0.03 | 4.11 | 4.06 | 78 | 1011.6 |
| 20260904223411 | 27 | 254 | 1.6 | 4.8 | 0.03 | 4.11 | 4.06 | 78 | 1012.1 |
| 20260904222411 | 27 | 260 | 0.0 | 4.8 | 0.00 | 4.09 | 4.04 | 81 | 1012.5 |
| 20260904221411 | 27 | 248 | 0.0 | 4.8 | 0.00 | 4.09 | 4.04 | 80 | 1012.6 |
| 20260904220411 | 27 | 202 | 0.0 | 0.0 | 0.00 | 4.09 | 4.04 | 82 | 1012.8 |
| 20260904215411 | 27 | 202 | 0.0 | 1.6 | 0.00 | 4.09 | 4.04 | 84 | 1012.9 |
| 20260904214411 | 28 | 202 | 0.0 | 0.0 | 0.00 | 4.09 | 4.04 | 82 | 1012.7 |
| 20260904213411 | 28 | 202 | 0.0 | 0.0 | 0.00 | 4.09 | 4.04 | 81 | 1012.7 |
| 20260904212441 | 28 | 202 | 0.0 | 0.0 | 0.00 | 4.09 | 4.04 | 83 | 1012.4 |
| 20260904211411 | 28 | 202 | 0.0 | 0.0 | 0.00 | 4.09 | 4.04 | 81 | 1012.2 |
| 20260904210411 | 28 | 202 | 0.0 | 0.0 | 0.00 | 4.09 | 4.04 | 79 | 1012.5 |
| 20260904204441 | 28 | 198 | 0.0 | 0.0 | 0.00 | 4.09 | 4.04 | 79 | 1012.2 |
| 20260904203411 | 29 | 198 | 0.0 | 0.0 | 0.00 | 4.09 | 4.04 | 80 | 1012.4 |
| 20260904202541 | 29 | 198 | 0.0 | 0.0 | 0.00 | 4.09 | 4.04 | 75 | 1012.2 |
| 20260904201411 | 30 | 198 | 0.0 | 0.0 | 0.00 | 4.09 | 4.04 | 73 | 1012.2 |
| 20260904200411 | 31 | 196 | 0.0 | 0.0 | 0.00 | 4.09 | 4.04 | 70 | 1012.3 |
| 20260904195411 | 31 | 269 | 0.0 | 3.2 | 0.00 | 4.09 | 4.04 | 69 | 1012.5 |
| 20260904194411 | 32 | 269 | 3.2 | 3.2 | 0.00 | 4.09 | 4.04 | 65 | 1012.4 |
| 20260904193411 | 32 | 269 | 0.0 | 3.2 | 0.00 | 4.09 | 4.04 | 67 | 1012.5 |
| 20260904192411 | 32 | 281 | 0.0 | 4.8 | 0.00 | 4.09 | 4.04 | 67 | 1012.6 |
| 20260904191411 | 32 | 346 | 0.0 | 3.2 | 0.00 | 4.09 | 4.04 | 63 | 1012.7 |
| 20260904190411 | 31 | 246 | 1.6 | 3.2 | 0.00 | 4.09 | 4.04 | 65 | 1012.8 |
| 20260904185411 | 31 | 302 | 1.6 | 4.8 | 0.00 | 4.09 | 4.04 | 63 | 1013.0 |
| 20260904184411 | 31 | 293 | 0.0 | 0.0 | 0.00 | 4.09 | 4.04 | 72 | 1013.2 |